Flag for Germany Weather past 2 weeks in Deggendorf, Bavaria, Germany

Now
46 °F

Light rain. Overcast.


Feels Like: 43 °F
Forecast: 36 / 58 °F
Wind: 6 mph from Northwest

Location: Straubing

Current Time: Apr 28, 2015 at 12:42:12 PM

Latest Report: Apr 28, 2015 at 12:00 PM


Visibility: 9 mi

Pressure: 29.85 "Hg

Humidity: 92%

Dew point: 44 °F

Location of DeggendorfLocation

Historic Weather in Deggendorf — Graph

°F

Deggendorf temperature yesterday

Maximum temperature yesterday: 73 °F (at 6:00 PM)
Minimum temperature yesterday: 49 °F (at 6:00 AM)
Average temperature yesterday: 61 °F

Past Weeks' High & Low Weather Summary

 TemperatureHumidityPressure
High73 °F (Apr 27, 6:00 PM)100% (Apr 24, 2:00 AM)30.47 "Hg (Apr 24, 2:00 AM)
Low33 °F (Apr 24, 3:00 AM)20% (Apr 21, 4:00 PM)29.41 "Hg (Apr 27, 7:00 PM)
Average53 °F64%30.05 "Hg
* Reported Apr 13 12:00 Noon — Apr 28 11:00 AM, Deggendorf, Weather by CustomWeather, © 2015

Note: Actual official high and low records may vary slightly from our data, if they occured in-between our weather recording intervals... More about our weather records

Advertising

Deggendorf weather history for previous 24 hours

 ConditionsComfort  
Time TempWeatherWind HumidityBarometerVisibility
11:00 AM
Tue, Apr 28
45 °FLight rain. Low clouds.6 mph96%29.81 "Hg4 mi
10:00 AM46 °FDrizzle. Low clouds.6 mph96%29.76 "Hg3 mi
9:00 AM46 °FLight rain. Low clouds.6 mph95%29.71 "Hg6 mi
8:00 AM49 °FLight rain. Low clouds.3 mph95%29.67 "Hg11 mi
7:00 AM49 °FLight freezing rain. Overcast.3 mph92%29.63 "Hg10 mi
6:00 AM49 °FDrizzle. Overcast.6 mph90%29.61 "Hg16 mi
4:00 AM51 °FOvercast.6 mph92%29.57 "Hg6 mi
3:00 AM52 °FOvercast.5 mph93%29.55 "Hg5 mi
2:00 AM53 °FOvercast.3 mph91%29.55 "Hg7 mi
1:00 AM56 °FLight rain. Overcast.7 mph87%29.50 "Hg6 mi
12:00 AM60 °FLight rain. Overcast.5 mph75%29.50 "Hg16 mi
10:00 PM
Mon, Apr 27
64 °FOvercast.9 mph61%29.44 "Hg31 mi
9:00 PM69 °FOvercast.2 mph41%29.44 "Hg43 mi
8:00 PM70 °FScattered clouds.2 mph39%29.44 "Hg43 mi
7:00 PM72 °FSunny.2 mph37%29.41 "Hg40 mi
6:00 PM73 °FSunny.2 mph36%29.44 "Hg40 mi
4:00 PM72 °FScattered clouds.2 mph37%29.47 "Hg43 mi
3:00 PM73 °FOvercast.2 mph48%29.50 "Hg22 mi
2:00 PM71 °FOvercast.1 mph48%29.50 "Hg25 mi
1:00 PM68 °FOvercast.2 mph53%29.55 "Hg34 mi
12:00 PM67 °FSunny.1 mph56%29.57 "Hg19 mi
Weather by CustomWeather, © 2015

See weather overviewHow to use our weather pages